QPF
0.00 0.00 0.00 0.00 0.00 0.00 0.00 0.00 0.00 0.00 0.00 0.00 0.00 0.00 0.00 0.00 0.00 0.00 0.00 0.00 0.00 0.00
0.00 0.00 0.00 0.00 0.00 0.00 0.00 0.00 0.00 0.00 0.00 0.00 0.00 0.00 0.00 0.00 0.00 0.00 0.00 0.00 0.00 0.00
0.00 0.00 0.00 0.00 0.00 0.00 0.00 0.00 0.00 0.00 0.00 0.00 0.00 0.00 0.00 0.00 0.00 0.00 0.00 0.00 0.00 0.00
0.00 0.00 0.00 0.00 0.00 0.00 0.00 0.00 0.00 0.00 0.00 0.00 0.00 0.00 0.00 0.00 0.00 0.00 0.00 0.00 0.00 0.00
0.00 0.00 0.00 0.00 0.00 0.00 0.00 0.00 0.00 0.00 0.00 0.00 0.00 0.00 0.00 0.00 0.00 0.00 0.00 0.00 0.00 0.00
0.00 0.00 0.00 0.00 0.00 0.00 0.00 0.00 0.00 0.00 0.00 0.00 0.00 0.00 0.00 0.00 0.00 0.00 0.00 0.00 0.00 0.00
0.00 0.00 0.00 0.00 0.00 0.00 0.00 0.00 0.00 0.00 0.00 0.00 0.00 0.00 0.00 0.00 0.00 0.00 0.00 0.00 0.00 0.00
0.00 0.00 0.00 0.00 0.00 0.00 0.00 0.00 0.00 0.00 0.00 0.00 0.00 0.00 0.00 0.00 0.00 0.00 0.00 0.00 0.00 0.00
0.00 0.00 0.00 0.00 0.00 0.00 0.00 0.00 0.00 0.00 0.00 0.00 0.00 0.00 0.00 0.01 0.01 0.01 0.01 0.00 0.00 0.00
0.00 0.00 0.00 0.00 0.00 0.00 0.00 0.00 0.00 0.00 0.00 0.00 0.00 0.00 0.02 0.03 0.02 0.02 0.02 0.01 0.01 0.01
0.00 0.00 0.00 0.00 0.00 0.00 0.00 0.00 0.00 0.00 0.00 0.00 0.00 0.01 0.03 0.04 0.02 0.01 0.01 0.00 0.00 0.00
0.00 0.00 0.00 0.00 0.00 0.00 0.00 0.00 0.00 0.00 0.00 0.00 0.00 0.01 0.02 0.03 0.01 0.01 0.01 0.01 0.00 0.00
0.00 0.00 0.00 0.00 0.00 0.00 0.00 0.00 0.00 0.00 0.00 0.00 0.00 0.00 0.03 0.03 0.01 0.01 0.00 0.00 0.00 0.01
0.00 0.00 0.00 0.00 0.00 0.00 0.00 0.00 0.00 0.00 0.00 0.00 0.00 0.01 0.02 0.02 0.02 0.01 0.01 0.01 0.00 0.00
MSLP
1022.19 1022.30 1022.31 1022.30 1022.18 1021.96 1021.66 1021.27 1021.00 1020.62 1020.24 1019.87 1019.52 1019.16 1018.85 1018.49 1018.19 1017.96 1017.65 1017.37 1017.22 1016.85
1022.13 1022.17 1022.12 1022.00 1021.89 1021.61 1021.26 1020.83 1020.27 1019.98 1019.58 1019.17 1018.82 1018.56 1018.24 1017.81 1017.41 1017.15 1016.90 1016.56 1016.32 1016.06
1021.89 1021.86 1021.82 1021.71 1021.44 1021.15 1020.72 1020.28 1019.82 1019.35 1018.92 1018.51 1018.18 1017.85 1017.49 1017.04 1016.66 1016.29 1015.99 1015.68 1015.38 1015.16
1021.65 1021.64 1021.55 1021.33 1020.99 1020.58 1020.11 1019.68 1019.20 1018.69 1018.18 1017.77 1017.40 1017.05 1016.54 1016.03 1015.60 1015.25 1014.88 1014.66 1014.35 1014.04
1021.55 1021.43 1021.22 1020.90 1020.49 1020.04 1019.49 1019.02 1018.56 1018.06 1017.58 1017.05 1016.55 1016.06 1015.54 1015.00 1014.63 1014.17 1013.70 1013.35 1013.07 1012.85
1021.28 1021.07 1020.75 1020.38 1019.97 1019.46 1018.91 1018.40 1017.89 1017.39 1016.76 1016.10 1015.48 1014.94 1014.49 1013.93 1013.39 1013.00 1012.52 1012.16 1011.89 1011.59
1020.96 1020.72 1020.38 1019.96 1019.45 1018.92 1018.43 1017.79 1017.10 1016.45 1015.79 1015.21 1014.57 1013.83 1013.23 1012.76 1012.29 1011.90 1011.42 1010.98 1010.63 1010.32
1020.71 1020.43 1020.04 1019.51 1018.91 1018.32 1017.76 1017.02 1016.32 1015.62 1014.93 1014.16 1013.58 1012.87 1012.27 1011.66 1011.01 1010.50 1009.96 1009.54 1009.13 1008.82
1020.51 1020.09 1019.59 1018.97 1018.32 1017.59 1016.89 1016.20 1015.56 1014.85 1014.05 1013.18 1012.62 1011.96 1011.17 1010.43 1009.70 1009.03 1008.38 1007.69 1007.19 1006.79
1020.19 1019.64 1019.05 1018.39 1017.68 1016.94 1016.12 1015.53 1014.83 1013.93 1013.24 1012.45 1011.78 1011.02 1010.06 1009.17 1008.40 1007.79 1007.03 1006.33 1005.77 1005.26
1019.78 1019.18 1018.46 1017.75 1017.01 1016.23 1015.44 1014.63 1013.88 1013.14 1012.55 1011.83 1010.99 1010.18 1009.21 1008.21 1007.27 1006.53 1005.75 1005.08 1004.45 1003.85
1019.34 1018.60 1017.89 1017.08 1016.24 1015.45 1014.82 1013.91 1013.20 1012.60 1011.92 1011.15 1010.23 1009.33 1008.27 1007.30 1006.33 1005.39 1004.39 1003.47 1002.64 1001.88
1018.86 1018.17 1017.37 1016.55 1015.71 1014.94 1014.14 1013.46 1012.79 1011.96 1011.28 1010.47 1009.42 1008.57 1007.50 1006.48 1005.44 1004.25 1002.86 1001.93 1000.41 999.39
1018.36 1017.72 1016.95 1015.96 1015.03 1014.25 1013.69 1013.01 1012.23 1011.42 1010.58 1009.68 1008.83 1007.77 1006.86 1005.75 1004.64 1003.46 1002.05 1000.69 999.24 998.61
Thickness
5546 5540 5534 5528 5524 5520 5517 5514 5510 5508 5505 5501 5497 5494 5489 5486 5480 5475 5471 5466 5458 5454
5532 5525 5520 5515 5510 5506 5502 5498 5496 5492 5489 5485 5480 5475 5470 5466 5461 5454 5447 5442 5435 5430
5519 5513 5508 5502 5497 5492 5488 5484 5481 5478 5474 5469 5463 5457 5451 5446 5439 5433 5427 5422 5419 5415
5507 5500 5493 5488 5483 5479 5476 5471 5466 5461 5457 5451 5444 5437 5433 5428 5423 5418 5415 5412 5409 5407
5492 5485 5480 5475 5470 5465 5461 5455 5449 5444 5438 5432 5427 5422 5418 5416 5412 5410 5407 5404 5402 5399
5478 5473 5468 5462 5457 5451 5446 5440 5434 5427 5423 5419 5416 5413 5409 5407 5405 5401 5399 5397 5395 5394
5466 5459 5454 5448 5442 5436 5430 5425 5421 5416 5412 5409 5408 5406 5403 5399 5396 5393 5392 5392 5392 5391
5451 5444 5438 5433 5428 5423 5416 5412 5408 5405 5403 5402 5399 5397 5394 5392 5392 5391 5392 5392 5391 5390
5435 5429 5424 5419 5414 5410 5406 5401 5399 5397 5395 5395 5391 5388 5388 5387 5388 5390 5392 5393 5394 5393
5418 5414 5409 5404 5400 5397 5395 5392 5390 5390 5387 5386 5384 5383 5385 5386 5387 5387 5390 5391 5391 5389
5401 5397 5393 5390 5387 5386 5386 5386 5384 5382 5379 5378 5379 5378 5381 5383 5385 5386 5388 5388 5387 5386
5383 5381 5378 5378 5377 5378 5377 5378 5376 5373 5372 5372 5374 5375 5378 5379 5382 5384 5386 5387 5388 5388
5368 5367 5368 5368 5369 5370 5370 5369 5366 5367 5366 5367 5370 5371 5374 5376 5378 5382 5387 5390 5396 5397
5359 5359 5360 5363 5364 5364 5361 5359 5360 5362 5363 5365 5365 5369 5370 5373 5374 5377 5384 5389 5396 5393